| time (UTC) | temp F | wind direction | speed MPH | gust MPH | rain 1hr in | rain 24hr in | rain mn in | humidity % | barometer mb |
| 20260902080108 | 42 | 36 | 0.0 | 0.0 | 0.00 | 0.04 | 0.00 | 91 | 1004.5 |
| 20260902074600 | 42 | 47 | 0.0 | 1.0 | 0.00 | 0.04 | 0.00 | 92 | 1004.6 |
| 20260902073058 | 42 | 42 | 0.0 | 1.0 | 0.00 | 0.04 | 0.00 | 92 | 1004.7 |
| 20260902071608 | 43 | 64 | 0.0 | 1.0 | 0.00 | 0.04 | 0.00 | 91 | 1004.6 |
| 20260902070054 | 43 | 39 | 0.0 | 0.0 | 0.00 | 0.04 | 0.00 | 92 | 1004.6 |
| 20260902064558 | 44 | 36 | 0.0 | 1.0 | 0.00 | 0.04 | 0.00 | 91 | 1004.7 |
| 20260902063112 | 44 | 38 | 0.0 | 0.0 | 0.00 | 0.04 | 0.00 | 90 | 1004.7 |
| 20260902061553 | 45 | 38 | 0.0 | 1.0 | 0.00 | 0.04 | 0.00 | 89 | 1004.8 |
| 20260902060109 | 45 | 40 | 0.0 | 0.0 | 0.00 | 0.04 | 0.00 | 90 | 1004.7 |
| 20260902054547 | 46 | 39 | 0.0 | 1.0 | 0.00 | 0.04 | 0.04 | 89 | 1004.8 |
| 20260902053046 | 46 | 40 | 0.0 | 1.0 | 0.00 | 0.04 | 0.04 | 89 | 1004.7 |
| 20260902051548 | 46 | 360 | 0.0 | 1.0 | 0.00 | 0.04 | 0.04 | 89 | 1004.9 |
| 20260902050044 | 47 | 36 | 0.0 | 1.0 | 0.00 | 0.04 | 0.04 | 88 | 1005.0 |
| 20260902044546 | 47 | 49 | 0.0 | 1.0 | 0.00 | 0.04 | 0.04 | 88 | 1004.8 |
| 20260902043047 | 48 | 37 | 0.0 | 1.0 | 0.00 | 0.04 | 0.04 | 88 | 1004.6 |
| 20260902041544 | 48 | 37 | 0.0 | 3.0 | 0.00 | 0.04 | 0.04 | 87 | 1004.5 |
| 20260902040043 | 49 | 88 | 0.0 | 2.0 | 0.00 | 0.04 | 0.04 | 87 | 1004.4 |
| 20260902034542 | 49 | 90 | 0.0 | 2.0 | 0.00 | 0.04 | 0.04 | 87 | 1004.7 |
| 20260902033041 | 50 | 360 | 0.0 | 1.0 | 0.00 | 0.04 | 0.04 | 86 | 1004.9 |
| 20260902031545 | 51 | 43 | 0.0 | 1.0 | 0.00 | 0.04 | 0.04 | 84 | 1004.8 |
| 20260902030040 | 52 | 86 | 0.0 | 1.0 | 0.00 | 0.04 | 0.04 | 81 | 1004.5 |
| 20260902024540 | 52 | 107 | 1.0 | 3.0 | 0.01 | 0.04 | 0.04 | 80 | 1003.9 |
| 20260902023040 | 51 | 42 | 0.0 | 3.0 | 0.04 | 0.04 | 0.04 | 84 | 1003.9 |
| 20260902021544 | 51 | 40 | 0.0 | 3.0 | 0.04 | 0.04 | 0.04 | 84 | 1004.4 |
| 20260902020040 | 52 | 96 | 2.0 | 3.0 | 0.04 | 0.04 | 0.04 | 83 | 1004.0 |
| 20260902014546 | 53 | 259 | 2.0 | 6.0 | 0.03 | 0.03 | 0.03 | 78 | 1004.0 |
| 20260902013032 | 61 | 252 | 6.0 | 32.0 | 0.00 | 0.00 | 0.00 | 54 | 1004.7 |
| 20260902011531 | 67 | 215 | 0.0 | 4.0 | 0.00 | 0.00 | 0.00 | 37 | 1001.4 |
| 20260902010030 | 67 | 192 | 5.0 | 14.0 | 0.00 | 0.00 | 0.00 | 37 | 1001.4 |
| 20260902004531 | 68 | 140 | 3.0 | 13.0 | 0.00 | 0.00 | 0.00 | 38 | 1001.1 |
| 20260902003031 | 69 | 159 | 2.0 | 11.0 | 0.00 | 0.00 | 0.00 | 38 | 1001.0 |
| 20260902001529 | 71 | 136 | 6.0 | 18.0 | 0.00 | 0.00 | 0.00 | 37 | 1001.0 |
| 20260902000037 | 71 | 162 | 6.0 | 15.0 | 0.00 | 0.00 | 0.00 | 37 | 1001.3 |
| 20260901234545 | 71 | 162 | 4.0 | 15.0 | 0.00 | 0.00 | 0.00 | 37 | 1001.3 |
| 20260901233024 | 70 | 164 | 5.0 | 15.0 | 0.00 | 0.00 | 0.00 | 38 | 1001.7 |
| 20260901231523 | 69 | 141 | 7.0 | 15.0 | 0.00 | 0.00 | 0.00 | 39 | 1002.1 |
| 20260901230022 | 68 | 136 | 6.0 | 13.0 | 0.00 | 0.00 | 0.00 | 40 | 1002.3 |
| 20260901224522 | 72 | 157 | 11.0 | 19.0 | 0.00 | 0.00 | 0.00 | 31 | 1002.4 |
| 20260901223021 | 71 | 201 | 11.0 | 16.0 | 0.00 | 0.00 | 0.00 | 33 | 1002.4 |
| 20260901221547 | 72 | 119 | 5.0 | 22.0 | 0.00 | 0.00 | 0.00 | 35 | 1002.3 |
| 20260901220020 | 72 | 131 | 4.0 | 12.0 | 0.00 | 0.00 | 0.00 | 36 | 1002.1 |
| 20260901214518 | 72 | 100 | 6.0 | 19.0 | 0.00 | 0.00 | 0.00 | 36 | 1002.3 |
| 20260901213017 | 72 | 148 | 5.0 | 19.0 | 0.00 | 0.00 | 0.00 | 34 | 1002.5 |
| 20260901211524 | 71 | 148 | 6.0 | 17.0 | 0.00 | 0.00 | 0.00 | 37 | 1002.7 |
| 20260901210018 | 71 | 153 | 6.0 | 17.0 | 0.00 | 0.00 | 0.00 | 37 | 1002.9 |
| 20260901204518 | 71 | 107 | 2.0 | 17.0 | 0.00 | 0.00 | 0.00 | 37 | 1003.1 |
| 20260901203022 | 71 | 149 | 6.0 | 17.0 | 0.00 | 0.00 | 0.00 | 38 | 1003.2 |
| 20260901201529 | 72 | 139 | 8.0 | 17.0 | 0.00 | 0.00 | 0.00 | 35 | 1003.2 |
| 20260901200011 | 73 | 109 | 3.0 | 16.0 | 0.00 | 0.00 | 0.00 | 35 | 1003.3 |
| 20260901194509 | 73 | 157 | 11.0 | 18.0 | 0.00 | 0.00 | 0.00 | 35 | 1003.5 |
| 20260901193006 | 74 | 138 | 4.0 | 18.0 | 0.00 | 0.00 | 0.00 | 37 | 1003.9 |
| 20260901191509 | 72 | 161 | 10.0 | 16.0 | 0.00 | 0.00 | 0.00 | 38 | 1004.4 |
| 20260901190002 | 72 | 142 | 4.0 | 15.0 | 0.00 | 0.00 | 0.00 | 36 | 1004.4 |
| 20260901184606 | 71 | 148 | 7.0 | 17.0 | 0.00 | 0.00 | 0.00 | 39 | 1004.7 |
| 20260901183100 | 71 | 97 | 8.0 | 16.0 | 0.00 | 0.00 | 0.00 | 38 | 1004.9 |
| 20260901181555 | 70 | 112 | 3.0 | 14.0 | 0.00 | 0.00 | 0.00 | 39 | 1005.1 |
| 20260901180051 | 69 | 161 | 8.0 | 18.0 | 0.00 | 0.00 | 0.00 | 40 | 1005.5 |
| 20260901174550 | 69 | 109 | 5.0 | 17.0 | 0.00 | 0.00 | 0.00 | 40 | 1005.6 |
| 20260901173046 | 68 | 115 | 8.0 | 14.0 | 0.00 | 0.00 | 0.00 | 42 | 1005.9 |
| 20260901171546 | 67 | 149 | 5.0 | 14.0 | 0.00 | 0.00 | 0.00 | 44 | 1006.1 |
| 20260901170040 | 66 | 152 | 7.0 | 13.0 | 0.00 | 0.00 | 0.00 | 45 | 1006.3 |
| 20260901164538 | 64 | 163 | 3.0 | 16.0 | 0.00 | 0.00 | 0.00 | 47 | 1006.5 |
| 20260901163037 | 65 | 189 | 9.0 | 13.0 | 0.00 | 0.00 | 0.00 | 47 | 1006.4 |
| 20260901161539 | 64 | 105 | 6.0 | 14.0 | 0.00 | 0.00 | 0.00 | 49 | 1006.8 |
| 20260901160047 | 63 | 156 | 9.0 | 14.0 | 0.00 | 0.00 | 0.00 | 50 | 1007.1 |
| 20260901154526 | 62 | 164 | 6.0 | 11.0 | 0.00 | 0.00 | 0.00 | 52 | 1007.3 |
| 20260901153024 | 61 | 108 | 3.0 | 10.0 | 0.00 | 0.00 | 0.00 | 54 | 1007.5 |
| 20260901151520 | 60 | 131 | 1.0 | 8.0 | 0.00 | 0.00 | 0.00 | 56 | 1007.6 |
| 20260901150015 | 59 | 133 | 5.0 | 13.0 | 0.00 | 0.00 | 0.00 | 58 | 1008.0 |
| 20260901144513 | 57 | 148 | 2.0 | 8.0 | 0.00 | 0.00 | 0.00 | 61 | 1008.1 |
| 20260901143007 | 54 | 146 | 2.0 | 8.0 | 0.00 | 0.00 | 0.00 | 68 | 1008.3 |
| 20260901141506 | 52 | 327 | 0.0 | 2.0 | 0.00 | 0.00 | 0.00 | 70 | 1008.4 |
| 20260901140002 | 51 | 334 | 1.0 | 2.0 | 0.00 | 0.00 | 0.00 | 69 | 1008.3 |
| 20260901134621 | 51 | 334 | 0.0 | 3.0 | 0.00 | 0.00 | 0.00 | 69 | 1008.4 |
| 20260901133055 | 50 | 51 | 0.0 | 2.0 | 0.00 | 0.00 | 0.00 | 70 | 1008.6 |
| 20260901131553 | 49 | 9 | 0.0 | 2.0 | 0.00 | 0.00 | 0.00 | 70 | 1008.8 |
| 20260901130057 | 48 | 9 | 0.0 | 3.0 | 0.00 | 0.00 | 0.00 | 70 | 1008.9 |
| 20260901124558 | 48 | 14 | 0.0 | 1.0 | 0.00 | 0.00 | 0.00 | 69 | 1009.0 |
| 20260901123049 | 49 | 11 | 0.0 | 2.0 | 0.00 | 0.00 | 0.00 | 69 | 1009.2 |
| 20260901121553 | 49 | 65 | 0.0 | 1.0 | 0.00 | 0.00 | 0.00 | 63 | 1009.3 |
| 20260901120056 | 48 | 127 | 0.0 | 2.0 | 0.00 | 0.00 | 0.00 | 65 | 1009.7 |
| 20260901114542 | 47 | 10 | 0.0 | 2.0 | 0.00 | 0.00 | 0.00 | 64 | 1009.8 |
| 20260901113104 | 45 | 11 | 0.0 | 2.0 | 0.00 | 0.00 | 0.00 | 64 | 1010.1 |
| 20260901111538 | 43 | 32 | 0.0 | 2.0 | 0.00 | 0.00 | 0.00 | 62 | 1010.2 |
| 20260901110040 | 43 | 32 | 0.0 | 2.0 | 0.00 | 0.00 | 0.00 | 60 | 1010.2 |
| 20260901104536 | 42 | 32 | 0.0 | 2.0 | 0.00 | 0.00 | 0.00 | 60 | 1010.3 |
| 20260901103035 | 43 | 28 | 0.0 | 2.0 | 0.00 | 0.00 | 0.00 | 53 | 1010.4 |
| 20260901101547 | 41 | 133 | 0.0 | 1.0 | 0.00 | 0.00 | 0.00 | 58 | 1010.4 |
| 20260901100035 | 41 | 133 | 0.0 | 2.0 | 0.00 | 0.00 | 0.00 | 54 | 1010.4 |
| 20260901094532 | 41 | 133 | 0.0 | 2.0 | 0.00 | 0.00 | 0.00 | 54 | 1010.4 |
| 20260901093033 | 41 | 132 | 0.0 | 0.0 | 0.00 | 0.00 | 0.00 | 53 | 1010.1 |
| 20260901091528 | 42 | 132 | 0.0 | 0.0 | 0.00 | 0.00 | 0.00 | 51 | 1010.1 |
| 20260901090022 | 44 | 132 | 0.0 | 1.0 | 0.00 | 0.00 | 0.00 | 50 | 1010.2 |
| 20260901084528 | 45 | 132 | 0.0 | 1.0 | 0.00 | 0.00 | 0.00 | 47 | 1010.2 |
| 20260901083018 | 45 | 132 | 0.0 | 1.0 | 0.00 | 0.00 | 0.00 | 45 | 1010.3 |
| 20260901081516 | 45 | 132 | 0.0 | 0.0 | 0.00 | 0.00 | 0.00 | 45 | 1010.4 |